Total_Precipitation_Accumulation
1.92 2.11 2.72 2.70 2.30 2.04 1.95 1.86 1.75 1.78 1.58 1.46 1.53 1.54 1.67 1.70 1.72 1.68 1.72 1.94 2.17 2.40 2.61 2.87 2.86 2.68 2.41 2.17 1.90 1.62 1.47 1.56 1.75 2.05 2.16 2.15 2.10 2.27 2.54 2.51 2.38 1.78 1.74
1.70 1.93 2.59 2.61 2.11 1.87 1.82 1.75 1.81 1.74 1.61 1.51 1.56 1.58 1.78 1.80 1.64 1.58 1.78 2.04 2.24 2.46 2.61 2.53 2.40 2.16 1.99 1.77 1.48 1.30 1.33 1.59 1.91 2.18 2.31 2.08 2.16 2.31 2.38 2.27 2.35 1.72 1.57
1.42 1.52 1.90 2.29 2.03 1.75 1.65 1.71 1.75 1.59 1.55 1.56 1.61 1.59 1.73 1.73 1.58 1.60 1.77 1.95 2.22 2.52 2.31 2.07 1.92 1.76 1.61 1.41 1.22 1.27 1.47 1.74 2.13 2.38 2.55 1.88 1.76 2.20 2.20 2.06 1.85 1.41 1.34
1.10 1.19 1.37 1.71 1.68 1.55 1.46 1.48 1.42 1.42 1.42 1.49 1.60 1.54 1.58 1.58 1.52 1.57 1.78 1.94 2.13 2.08 1.80 1.78 1.71 1.54 1.33 1.19 1.13 1.25 1.48 1.72 2.14 2.46 2.52 1.73 1.37 1.71 1.78 1.57 1.44 1.26 1.15
0.96 1.06 1.25 1.41 1.37 1.37 1.36 1.31 1.26 1.28 1.35 1.45 1.47 1.48 1.54 1.49 1.50 1.61 1.76 1.91 1.89 1.71 1.61 1.64 1.52 1.40 1.13 0.99 1.05 1.20 1.38 1.63 2.03 2.10 1.76 1.68 1.59 1.59 1.46 1.38 1.43 1.22 1.06
0.86 0.98 1.16 1.20 1.06 1.09 1.13 1.11 1.13 1.18 1.35 1.41 1.34 1.44 1.53 1.58 1.56 1.62 1.69 1.74 1.66 1.50 1.47 1.38 1.27 1.20 1.02 0.95 1.07 1.22 1.43 1.76 1.81 1.26 1.25 1.49 1.37 1.43 1.34 1.42 1.38 1.14 1.03
0.77 0.92 1.00 1.05 0.94 0.92 1.00 0.99 1.06 1.20 1.40 1.44 1.37 1.39 1.45 1.53 1.56 1.53 1.49 1.49 1.51 1.39 1.28 1.21 1.18 1.08 1.03 1.03 1.11 1.21 1.48 1.74 1.48 1.08 1.23 1.47 1.23 1.11 1.28 1.35 1.40 1.24 1.10
0.78 0.91 1.03 1.07 0.97 0.92 0.97 0.99 1.06 1.30 1.53 1.49 1.37 1.36 1.35 1.35 1.36 1.33 1.33 1.38 1.43 1.30 1.17 1.12 1.09 1.03 0.96 0.97 1.03 1.18 1.34 1.26 1.08 1.01 1.08 1.27 0.98 0.95 1.13 1.25 1.34 1.34 1.30
0.97 1.16 1.16 1.04 1.04 1.14 1.23 1.29 1.36 1.58 1.64 1.52 1.48 1.40 1.34 1.27 1.25 1.29 1.26 1.29 1.29 1.20 1.15 1.04 1.02 0.95 0.87 0.90 0.96 1.09 1.18 1.16 1.07 1.13 0.97 1.08 0.87 0.92 1.07 1.21 1.27 1.33 1.35
1.17 1.15 1.14 1.03 1.03 1.08 1.33 1.69 1.73 1.72 1.71 1.64 1.55 1.47 1.36 1.24 1.25 1.28 1.18 1.33 1.32 1.31 1.26 1.21 1.20 1.00 0.97 1.04 1.04 1.14 1.19 1.05 1.02 1.09 1.27 1.07 0.92 1.04 1.20 1.27 1.29 1.34 1.41
1.51 1.38 1.24 1.00 1.07 1.27 1.55 1.70 1.76 1.79 1.89 1.96 1.84 1.71 1.68 1.73 1.69 1.79 1.55 1.79 1.71 1.69 1.62 1.61 1.54 1.42 1.36 1.22 1.29 1.41 1.27 1.04 1.31 1.45 1.33 1.02 1.08 1.42 1.62 1.44 1.36 1.40 1.43
1.97 1.78 1.55 1.31 1.33 1.54 1.57 1.55 1.66 1.72 1.88 1.99 2.07 1.98 2.27 2.54 2.42 1.90 2.09 2.39 2.42 2.34 2.22 2.25 2.33 2.09 1.77 1.49 1.84 2.08 1.44 1.29 1.54 1.49 1.38 1.41 1.64 2.01 2.19 1.89 1.66 1.60 1.54
2.04 1.98 1.92 1.75 1.72 1.62 1.64 1.62 1.81 1.98 2.33 2.22 2.11 2.13 2.58 2.48 2.20 1.99 2.23 2.60 2.87 2.71 2.56 2.67 2.75 2.30 2.35 2.55 2.65 2.63 2.00 1.77 1.93 1.86 1.66 1.82 2.12 2.54 2.87 2.64 2.23 2.00 1.88
2.57 2.46 2.35 2.23 2.12 2.12 2.03 1.90 1.85 1.96 2.19 2.28 2.42 2.19 2.56 2.79 2.65 2.59 2.84 2.82 3.03 3.17 3.55 3.34 3.39 3.16 3.10 2.93 2.87 2.94 2.71 2.59 2.38 2.52 2.58 2.43 2.57 2.90 3.30 3.34 2.93 2.50 2.26
2.99 2.88 2.85 2.77 2.70 2.71 2.63 2.47 2.02 2.18 2.27 2.39 2.63 2.61 2.74 3.06 3.15 3.18 3.16 3.06 2.81 3.15 3.59 3.84 3.45 3.71 3.74 3.34 3.00 2.83 2.80 2.74 2.88 3.10 3.03 3.18 3.12 3.13 3.49 3.68 3.49 3.23 3.03
3.13 3.33 3.52 3.44 3.30 3.34 3.22 3.09 2.87 2.67 2.85 2.82 2.92 3.12 3.28 3.55 3.72 3.67 3.49 3.38 2.99 2.96 3.29 3.52 3.50 3.90 3.75 3.55 2.91 2.76 2.68 2.80 3.01 3.04 3.08 3.57 3.50 3.24 3.34 3.70 3.95 3.92 3.67
3.28 3.82 4.20 4.25 4.12 4.13 4.03 3.74 3.47 3.37 3.39 3.66 3.84 3.82 3.76 3.89 4.17 3.99 3.75 3.35 3.10 3.10 3.33 3.29 3.31 3.44 3.31 3.19 2.94 2.96 2.89 2.84 2.83 2.92 3.11 3.39 3.28 3.02 3.08 3.33 3.79 4.11 4.33
3.56 4.20 4.64 4.84 5.00 4.89 4.85 4.57 4.14 3.98 3.97 4.05 4.15 4.19 4.00 4.03 3.93 3.93 3.61 3.16 3.16 3.15 3.22 3.35 3.21 3.31 3.27 3.27 3.22 2.96 2.96 2.94 2.59 2.60 2.78 2.87 3.05 2.72 2.86 3.07 3.27 3.58 4.29
3.88 4.61 5.18 5.76 5.97 5.81 5.51 5.11 4.73 4.66 4.54 4.39 4.40 4.36 4.15 3.88 3.70 3.88 3.56 3.34 3.23 3.20 3.07 2.84 3.29 3.47 3.46 3.43 3.06 2.93 2.68 2.46 2.29 2.13 2.16 2.05 2.28 2.48 2.74 2.78 3.00 3.23 3.98
3.94 4.74 5.51 6.25 6.43 6.14 5.58 5.24 5.14 4.97 4.68 4.44 4.21 4.04 3.78 3.61 3.32 3.55 3.25 3.16 3.24 3.38 3.21 3.20 3.53 3.58 3.28 3.33 2.93 2.81 2.66 2.24 2.12 2.05 1.92 1.91 1.88 1.83 2.24 2.70 3.17 2.91 3.27
4.17 4.92 5.60 6.17 6.25 6.09 5.72 5.34 5.10 4.64 4.32 4.05 3.79 3.59 3.33 3.04 2.94 3.30 3.06 3.41 3.21 3.16 3.00 2.94 3.05 3.13 2.84 3.04 3.37 2.92 2.38 2.08 1.95 1.83 1.82 1.88 1.81 1.91 2.23 2.70 3.01 3.16 2.98
4.03 4.58 5.00 5.06 4.83 4.75 4.80 4.69 4.44 4.45 4.28 4.18 3.99 3.81 3.32 3.11 3.01 2.84 3.04 2.86 2.83 2.95 2.75 2.66 2.86 2.88 2.59 2.87 3.12 3.19 2.61 2.37 2.00 1.50 1.64 1.78 1.88 2.10 2.10 2.20 2.62 2.98 2.90
3.51 3.83 3.86 3.79 3.69 3.82 3.93 3.88 3.93 4.18 4.22 4.24 4.13 3.86 3.49 3.28 3.14 2.99 2.88 2.71 2.67 2.51 2.64 2.67 2.73 2.82 2.80 2.70 2.74 3.04 2.75 2.41 2.02 1.59 1.52 1.76 2.08 2.34 2.28 2.29 2.26 2.53 2.61
2.76 2.88 2.85 2.93 3.02 3.15 3.27 3.29 3.16 3.20 3.46 3.71 3.89 3.94 3.83 3.54 3.28 2.99 2.81 2.61 2.46 2.33 2.61 2.31 2.42 2.73 2.93 2.62 2.54 2.51 2.46 2.56 2.45 2.09 1.68 1.56 1.84 2.05 2.08 1.98 2.03 2.21 2.41
2.02 2.13 2.16 2.45 2.84 3.04 3.18 3.30 3.18 2.86 2.89 2.97 3.10 3.26 3.24 3.23 3.04 2.71 2.61 2.55 2.38 2.25 2.29 2.29 2.57 2.59 2.61 2.54 2.59 2.52 2.59 2.75 2.57 2.42 2.08 1.95 2.08 1.98 1.87 1.81 1.86 2.03 2.30
1.61 1.75 1.95 2.26 2.74 3.03 3.13 3.09 3.04 2.95 2.96 2.90 2.87 2.93 2.80 2.77 2.66 2.42 2.32 2.43 2.30 2.21 2.24 2.24 2.37 2.44 2.60 2.67 2.65 2.60 2.65 2.65 2.68 2.85 2.51 2.27 2.25 1.98 1.89 1.89 1.97 2.10 2.26